Theta_e
315 315 314 314 313 313 313 314 314 314 314 314 313 314 314 313 314 314 315 315 315 315 315 316 317 317 308 294 296 303 329 336 324 312 305 301 298 296 293 293 293 292 295 298 301 301 301
314 314 314 314 313 312 313 313 314 314 314 314 314 313 313 313 313 314 315 315 315 314 315 316 317 318 302 290 300 307 320 317 315 307 304 302 300 299 296 294 294 296 294 297 298 298 299
314 314 313 313 312 312 312 312 312 313 314 314 313 313 313 314 313 314 315 315 314 314 315 316 318 314 300 296 302 305 310 310 314 307 303 303 302 300 297 292 295 295 291 294 294 296 297
313 313 313 312 312 312 312 312 312 313 313 313 313 313 313 313 313 314 314 315 315 317 316 318 319 310 294 303 304 307 306 304 313 309 306 305 302 298 294 294 294 289 289 286 292 295 298
312 312 312 312 312 311 311 311 311 312 313 313 312 312 312 313 313 314 314 314 318 319 320 320 308 299 295 309 304 308 306 303 306 306 305 307 301 295 294 289 286 287 284 285 290 294 296
312 312 312 312 311 311 311 312 312 311 312 313 312 311 311 312 313 313 313 314 322 318 317 318 313 296 300 299 307 308 306 306 304 303 301 297 292 289 286 285 281 284 284 286 287 291 293
311 311 311 311 311 311 311 311 311 312 312 312 312 311 311 312 313 312 307 300 295 293 297 294 297 298 301 306 309 306 307 305 304 298 292 293 288 285 288 289 291 289 287 287 289 293 291
311 311 311 311 311 310 311 311 311 311 311 311 311 311 312 312 312 312 301 295 297 297 289 298 298 299 303 304 300 302 306 299 297 293 292 289 286 291 293 291 291 289 287 286 289 292 291
310 310 310 310 310 311 311 311 311 311 310 310 310 310 311 311 311 303 298 299 298 296 290 296 301 300 301 302 298 299 304 298 294 290 290 288 292 295 293 290 289 287 286 286 288 291 290
310 310 310 310 310 310 310 311 310 310 310 310 310 310 311 310 302 298 296 300 300 297 286 293 299 300 301 301 297 305 304 300 292 292 290 288 292 293 290 290 290 285 291 291 290 287 283
309 309 310 310 310 310 310 310 310 310 309 309 309 310 310 310 297 296 300 299 298 300 279 297 297 304 300 297 298 300 303 298 294 293 292 290 291 290 289 290 293 289 294 291 290 286 284
309 309 309 310 309 309 309 309 309 309 308 309 309 310 309 304 296 298 299 298 300 289 281 293 296 294 293 295 297 298 297 299 298 293 292 291 295 294 293 295 295 296 292 289 286 284 280
308 309 309 309 309 309 309 308 309 309 308 308 308 309 305 306 296 303 297 298 287 282 292 288 290 294 291 290 293 293 292 288 286 285 285 291 291 295 298 292 293 291 286 280 279 279 281
308 308 309 309 309 309 309 308 308 308 307 307 306 305 304 306 301 296 296 291 281 287 286 292 291 292 288 290 290 290 289 286 289 289 285 284 285 292 296 294 290 289 287 281 277 278 282
308 307 307 308 308 308 308 307 307 307 306 306 304 298 298 301 300 296 293 281 280 285 289 288 289 286 285 288 288 290 286 285 288 290 283 282 285 293 298 296 294 290 284 288 283 282 280
307 307 307 307 307 308 308 307 307 307 306 305 293 294 296 301 296 294 287 284 285 290 291 289 283 286 281 283 284 287 287 288 287 291 292 286 281 291 293 296 294 292 292 285 283 278 277
307 307 307 307 307 307 307 307 307 307 305 304 292 290 297 299 295 289 281 282 288 291 292 288 285 283 283 282 282 282 283 285 288 289 292 287 284 285 290 286 284 288 283 284 286 283 278
307 307 306 307 306 306 307 307 307 306 304 300 290 286 297 295 286 282 281 285 292 288 290 289 287 285 283 282 281 282 283 285 290 291 285 286 283 279 283 288 289 286 283 283 282 281 281
307 306 305 305 306 306 306 306 307 306 304 297 287 287 295 293 280 279 284 287 289 288 287 286 285 286 285 280 278 283 284 289 289 290 283 281 277 274 274 283 287 283 283 283 283 283 281
306 306 306 306 306 306 306 306 306 306 304 292 287 283 287 286 285 281 281 283 285 290 287 287 285 285 282 279 280 279 281 287 289 288 292 287 280 276 271 276 282 279 282 283 284 279 278
306 305 305 305 305 305 305 305 306 306 304 292 286 282 284 280 282 281 281 283 284 284 287 286 283 284 281 277 277 276 281 283 285 288 284 280 275 279 280 282 281 281 281 280 279 280 277
306 306 305 305 305 304 304 304 305 306 303 290 284 283 284 282 284 282 282 280 284 285 284 283 282 285 283 279 280 279 280 279 279 281 278 279 273 278 277 281 281 279 280 280 280 280 280
305 305 305 304 304 304 304 304 304 305 300 288 288 288 285 283 281 280 280 283 285 286 287 288 286 283 282 284 286 286 285 283 283 280 278 277 275 273 273 278 278 273 278 279 281 282 280
305 305 305 305 304 303 303 303 303 304 300 291 289 289 282 280 282 283 285 286 285 286 283 287 288 283 287 291 289 285 282 282 281 281 281 276 275 274 270 275 267 277 283 283 281 282 284
305 305 304 304 304 303 303 303 303 302 303 295 291 287 289 284 287 286 286 285 285 285 284 285 289 288 288 286 281 278 277 278 280 282 279 280 276 271 266 270 275 279 282 280 279 279 285
305 304 304 304 304 303 303 303 303 303 303 298 296 296 293 286 285 288 287 286 284 282 281 284 288 288 287 282 278 271 270 277 277 279 281 279 279 273 271 263 264 277 284 286 285 275 285
304 304 304 303 303 303 303 303 302 302 302 296 297 295 294 287 290 290 286 286 289 286 283 286 285 284 284 273 270 269 272 279 274 276 276 276 275 269 269 265 273 282 286 288 275 276 287
304 304 303 303 303 303 302 303 303 304 303 300 293 300 295 289 290 292 292 288 288 288 283 285 284 280 278 273 276 275 275 276 276 279 278 276 275 271 272 267 271 286 286 281 283 285 289
303 303 303 303 303 303 303 303 305 305 305 303 291 300 302 293 291 294 295 296 294 293 288 288 286 282 281 273 274 277 278 274 275 273 281 275 280 278 280 277 284 288 289 291 288 287 287
Wind_Speed
20 21 22 22 22 23 23 23 22 23 23 24 25 26 25 25 24 23 21 20 18 15 13 11 6 3 1 2 12 4 6 7 12 12 11 7 6 7 7 5 2 4 5 5 8 8 8
21 21 22 22 23 24 24 24 24 23 23 24 24 25 25 26 25 23 22 19 17 15 11 8 6 6 4 3 5 4 9 6 8 7 7 8 9 7 5 5 6 5 4 6 6 8 5
21 22 22 23 23 24 25 25 26 25 25 25 25 25 25 25 25 24 22 20 17 15 9 6 9 4 4 16 1 6 5 3 10 7 7 5 5 6 6 1 3 5 4 6 4 5 8
21 22 23 23 23 24 25 26 27 26 26 26 25 25 25 25 25 24 23 20 18 9 4 7 10 2 8 4 2 8 5 3 6 3 4 7 3 4 3 1 7 3 3 1 6 2 6
22 22 22 23 24 25 25 26 27 28 28 28 27 26 26 26 25 24 21 19 6 9 9 12 2 2 10 6 2 4 6 4 6 3 2 5 6 3 2 5 5 6 3 4 7 3 3
22 22 23 24 24 24 25 25 26 27 29 29 29 28 27 27 25 21 19 4 9 10 5 4 4 4 6 1 3 2 4 6 5 7 4 2 5 3 4 4 7 6 4 4 4 3 4
22 22 24 25 26 26 26 27 27 27 28 30 30 30 29 26 24 19 7 2 8 5 1 7 9 6 11 7 4 3 5 6 5 5 5 4 4 6 10 8 8 5 5 5 4 5 2
23 23 24 25 26 28 27 27 27 28 29 30 31 31 30 27 23 16 1 8 7 6 13 11 14 11 15 4 7 3 6 6 5 7 6 3 6 12 8 3 6 5 5 5 6 5 6
23 24 25 27 27 26 28 28 28 28 29 31 31 31 29 24 22 4 2 6 5 5 3 9 5 4 6 8 6 8 7 4 6 4 8 9 8 5 7 5 5 4 5 4 9 5 3
22 24 25 25 26 26 29 29 30 30 30 31 31 30 29 26 5 4 4 7 4 5 5 8 5 5 4 5 2 3 4 7 2 12 7 5 5 8 5 6 8 6 8 8 6 2 5
22 23 24 24 26 27 28 29 30 31 30 31 32 30 24 11 2 3 7 9 6 4 4 9 6 4 8 7 8 6 6 3 6 5 7 10 5 6 6 9 9 9 7 9 5 5 3
23 24 24 24 26 27 28 29 30 32 32 31 33 29 21 1 1 6 8 8 3 7 6 7 5 9 7 9 9 8 9 11 3 3 2 6 3 5 8 6 8 5 4 6 5 4 3
22 23 23 24 25 26 28 30 31 33 34 34 34 27 8 2 6 13 6 4 6 4 7 8 6 7 5 8 7 11 7 13 8 9 9 8 3 5 7 3 4 4 5 3 3 0 11
20 22 22 23 25 26 27 30 31 33 35 36 35 19 3 3 7 5 3 6 3 3 3 4 5 3 5 8 6 8 4 5 7 4 2 5 4 8 10 1 3 4 9 7 7 5 7
20 21 23 24 24 26 27 28 30 32 35 37 25 5 3 10 10 2 7 6 3 2 4 6 4 5 4 5 4 5 6 6 4 5 4 5 6 4 3 5 1 3 3 7 3 1 3
19 20 21 23 24 26 27 28 29 33 35 33 4 4 4 16 6 5 8 3 1 3 4 4 1 4 4 7 6 5 2 4 5 7 0 2 5 3 7 3 6 5 4 3 3 4 4
18 19 20 20 21 23 26 29 30 32 35 28 4 5 5 18 4 8 5 1 3 4 3 4 2 2 2 3 2 4 4 3 4 4 4 2 3 7 5 6 4 5 5 5 2 3 5
18 18 20 21 21 21 23 25 28 29 33 8 5 5 7 9 8 3 3 5 5 5 5 4 3 3 1 3 4 1 2 2 5 3 2 3 3 2 3 8 14 9 5 3 1 3 1
17 17 18 20 19 20 22 24 26 27 23 4 3 4 6 6 6 4 6 5 3 3 3 2 2 1 1 1 3 1 2 3 4 2 1 2 2 3 6 3 3 5 4 3 2 1 4
16 17 18 19 20 19 20 22 24 27 25 3 3 5 6 7 2 3 4 4 6 4 2 3 2 5 2 1 1 3 2 1 2 2 4 4 2 4 6 3 2 5 9 4 2 1 6
16 16 17 18 18 19 20 21 22 25 27 3 4 0 2 5 4 2 1 3 4 6 5 6 3 2 2 2 2 3 2 4 3 3 3 4 4 4 5 6 6 8 11 7 8 7 7
15 15 16 16 17 17 18 19 20 21 21 5 2 3 4 1 3 4 3 2 3 4 3 3 4 8 4 4 5 4 1 2 6 2 2 2 3 3 4 10 10 12 12 13 11 11 18
15 15 15 14 15 15 15 16 17 17 10 3 2 2 3 2 3 2 2 2 2 4 5 2 3 3 3 3 5 7 7 6 8 7 6 5 5 2 4 2 4 9 18 15 6 6 7
14 15 15 14 14 14 14 13 12 13 6 2 1 0 3 3 1 3 7 11 10 5 4 9 8 3 2 5 5 3 5 8 8 10 8 7 6 4 3 1 6 8 3 6 10 10 10
14 14 14 13 13 13 12 11 11 10 7 1 1 1 1 3 2 10 4 4 6 7 6 7 7 3 3 5 3 6 5 5 4 5 6 8 6 2 3 4 9 5 6 6 8 11 18
13 13 13 13 12 13 11 10 10 8 9 1 2 2 2 3 3 1 3 9 8 5 6 4 5 4 2 2 2 4 3 2 5 6 6 6 3 5 3 4 8 6 4 7 6 18 8
12 12 12 12 12 12 12 11 9 8 8 1 3 4 2 3 4 4 4 3 1 2 3 3 5 5 4 2 2 3 4 3 3 4 4 2 1 6 5 5 10 7 5 7 8 8 3
11 10 11 12 12 12 11 11 11 11 8 3 4 4 3 4 7 10 11 9 7 4 4 3 5 3 2 1 3 4 3 4 2 4 4 6 4 5 3 4 15 11 5 10 6 3 1
9 10 11 12 11 11 12 12 13 13 11 4 3 3 3 6 5 7 14 18 19 16 5 5 4 3 4 3 1 1 3 1 4 6 5 7 11 6 11 9 7 6 5 6 7 7 6
Wind_Direction
18 16 13 10 6 4 360 356 353 348 345 343 342 340 338 334 330 327 322 318 313 311 307 302 280 221 172 27 252 279 336 96 115 148 161 145 132 140 163 191 178 210 236 213 226 235 254
16 14 11 8 5 2 358 355 352 347 343 340 337 336 335 332 331 327 320 314 308 303 303 291 244 175 125 277 242 74 105 117 142 123 157 138 175 178 160 189 167 224 226 245 262 256 231
14 11 9 7 4 360 356 353 351 345 341 339 336 335 334 331 330 327 321 314 309 303 286 257 197 214 121 236 289 330 194 208 161 151 157 210 152 142 139 200 231 255 290 303 238 245 212
12 10 8 5 2 360 356 353 349 345 340 336 336 333 332 330 328 328 324 319 315 306 227 178 182 246 240 236 254 298 174 120 179 218 110 146 121 93 149 234 11 337 63 329 279 6 245
11 9 6 3 0 357 354 351 349 345 339 336 335 333 332 331 330 331 328 324 348 89 118 141 168 235 269 307 260 265 151 152 140 116 140 128 119 168 104 101 11 352 233 223 308 245 258
10 7 4 2 359 355 352 350 347 344 340 336 334 332 332 331 330 330 326 294 119 99 122 207 253 308 285 266 300 85 155 132 117 105 72 110 58 101 44 103 209 223 223 241 221 285 45
8 5 3 1 357 354 350 349 347 344 339 335 334 332 333 330 329 332 342 54 10 352 356 221 241 254 291 277 290 181 135 118 118 115 164 190 123 193 217 198 202 208 201 229 248 240 251
7 4 2 359 357 354 349 347 345 343 340 335 333 333 334 330 327 328 272 88 131 250 302 249 253 250 257 43 306 319 128 148 141 195 132 66 217 224 218 176 194 201 238 270 273 260 173
5 3 1 358 355 353 350 346 345 343 340 336 334 335 334 332 322 24 18 111 126 160 274 299 222 230 280 129 199 277 178 178 175 188 184 178 221 183 175 182 163 207 187 223 232 297 252
6 3 2 357 354 351 349 346 345 343 341 337 335 336 334 328 49 319 325 335 326 173 43 287 346 344 2 127 265 224 260 170 189 203 199 215 242 196 181 213 165 235 209 230 248 129 254
4 2 1 357 354 351 348 346 344 341 341 339 335 337 337 358 266 33 292 320 300 66 340 331 354 311 339 77 306 8 41 307 222 196 117 234 199 185 195 211 176 222 205 203 213 207 71
1 359 359 358 355 350 349 346 344 342 339 340 335 335 334 14 28 256 313 309 59 47 258 352 13 354 14 1 5 311 11 22 11 356 335 236 213 178 218 235 192 198 144 51 51 106 254
1 357 356 356 353 349 349 346 345 342 339 339 335 331 323 325 311 322 324 40 41 154 345 356 332 348 37 349 7 10 56 48 29 5 18 342 317 355 29 29 8 119 76 304 319 69 246
358 356 355 354 352 349 349 348 346 342 339 338 332 325 287 220 297 321 50 52 187 14 344 358 341 330 47 356 355 8 56 42 20 37 7 16 328 12 335 339 249 211 164 164 225 207 257
354 356 354 354 352 349 349 349 346 344 340 338 329 336 360 333 340 53 70 62 190 292 303 342 317 19 358 344 334 47 46 356 53 27 64 16 275 340 345 342 23 315 180 156 174 352 95
351 354 353 355 351 349 347 348 349 345 340 339 328 341 298 332 337 64 73 128 84 344 343 38 46 13 358 334 2 21 72 359 2 356 169 122 288 21 295 336 13 69 355 65 5 206 233
347 349 350 353 353 349 348 347 349 348 342 337 17 19 286 338 45 50 93 3 334 2 51 33 29 31 52 332 302 358 1 53 354 330 88 29 160 305 341 41 281 337 22 359 123 138 193
342 345 346 348 351 349 349 348 348 350 346 30 345 14 324 343 51 30 55 317 314 343 10 38 82 69 75 359 321 21 88 83 319 342 44 22 141 291 259 89 57 64 50 48 62 207 228
336 338 342 343 345 351 351 349 347 348 357 324 357 281 331 28 67 4 316 312 345 4 9 55 92 83 45 359 322 30 26 198 53 104 136 306 353 7 351 348 38 50 47 36 229 14 237
333 334 338 338 340 348 350 349 349 344 350 94 34 355 339 36 49 92 5 304 327 352 34 14 81 54 70 284 289 294 269 313 315 216 78 94 138 167 192 228 175 290 317 351 108 224 334
325 330 332 332 337 344 348 349 353 344 344 89 27 320 180 331 358 359 254 334 339 356 352 24 59 73 195 259 285 279 279 310 290 252 94 115 207 205 238 270 278 267 284 270 234 218 222
318 320 322 329 332 340 344 349 353 350 348 69 47 22 359 301 305 341 4 29 33 339 305 343 53 314 260 227 221 258 238 237 245 334 110 19 245 188 262 237 242 267 258 253 255 246 255
310 312 313 319 325 331 339 348 353 360 20 54 332 360 98 326 344 8 249 82 1 353 283 79 348 311 240 214 275 235 219 229 233 201 195 168 165 123 268 193 236 274 249 229 223 215 227
302 306 308 314 319 323 328 340 349 357 56 121 268 343 60 289 319 279 309 304 292 256 258 290 303 246 259 318 282 268 232 245 240 248 173 168 152 157 230 164 236 238 167 179 212 245 246
297 300 303 308 312 315 320 327 337 343 12 92 221 89 254 274 324 294 311 344 326 311 272 248 259 163 315 12 336 326 326 340 285 236 196 184 138 185 175 212 284 278 211 190 182 251 234
290 296 299 301 304 307 311 315 322 325 329 141 227 198 269 320 221 24 313 294 285 292 319 292 327 316 57 97 99 193 234 269 306 318 57 103 104 136 155 179 238 227 208 204 93 262 278
278 288 294 297 298 299 304 308 313 303 300 309 262 187 232 256 249 226 225 298 212 239 256 293 305 350 50 77 112 167 244 216 241 228 215 144 139 192 209 239 276 239 225 124 182 254 355
274 283 289 291 293 295 299 299 295 292 281 284 247 183 227 262 274 255 263 246 256 225 247 342 336 359 36 82 171 218 202 240 277 241 204 189 195 213 202 192 273 210 132 190 210 245 243
268 276 280 284 289 287 283 280 283 282 283 261 265 225 200 246 254 301 259 254 249 243 243 198 240 169 221 86 277 29 262 280 192 268 202 254 203 201 198 212 237 207 223 218 166 209 222